TimeCET,TemperatureF,Dew PointF,Humidity,Sea Level PressureIn,VisibilityMPH,Wind Direction,Wind SpeedMPH,Gust SpeedMPH,PrecipitationIn,Events,Conditions,WindDirDegrees,DateUTC
12:00 AM,28.4,21.2,74,29.62,-9999.0,ESE,12.7,-,N/A,,Clear,120,2013-03-17 23:00:00
12:30 AM,28.4,21.2,74,29.62,-9999.0,ESE,11.5,-,N/A,,Clear,120,2013-03-17 23:30:00
1:00 AM,29,21,62,29.71,16,ESE,11.2,,,,Mostly Cloudy,120,2013-03-18 00:00:00
1:00 AM,28.4,21.2,74,29.62,-9999.0,ESE,9.2,-,N/A,,Clear,120,2013-03-18 00:00:00
1:30 AM,28.4,21.2,74,29.62,-9999.0,ESE,10.4,-,N/A,,Clear,120,2013-03-18 00:30:00
2:00 AM,28.4,21.2,74,29.62,-9999.0,ESE,10.4,-,N/A,,Clear,120,2013-03-18 01:00:00
2:30 AM,28.4,21.2,74,29.62,-9999.0,ESE,8.1,-,N/A,,Clear,110,2013-03-18 01:30:00
3:00 AM,28.4,21.2,74,29.62,-9999.0,ESE,6.9,-,N/A,,Clear,110,2013-03-18 02:00:00
3:30 AM,28.4,21.2,74,29.62,-9999.0,ESE,8.1,-,N/A,,Clear,120,2013-03-18 02:30:00
4:00 AM,28.4,21.2,74,29.59,-9999.0,ESE,6.9,-,N/A,,Clear,110,2013-03-18 03:00:00
4:30 AM,28.4,23.0,80,29.59,-9999.0,East,6.9,-,N/A,,Clear,100,2013-03-18 03:30:00
5:00 AM,26.6,21.2,80,29.56,-9999.0,East,9.2,-,N/A,,Clear,90,2013-03-18 04:00:00
5:30 AM,26.6,21.2,80,29.56,-9999.0,East,9.2,-,N/A,,Clear,90,2013-03-18 04:30:00
6:00 AM,26.6,21.2,80,29.56,6.2,East,9.2,-,N/A,,Mostly Cloudy,90,2013-03-18 05:00:00
6:30 AM,26.6,21.2,80,29.56,-9999.0,East,9.2,-,N/A,,Clear,100,2013-03-18 05:30:00
7:00 AM,26,22,77,29.64,9,East,8.9,,,,Partly Cloudy,90,2013-03-18 06:00:00
7:00 AM,26.6,23.0,86,29.56,-9999.0,East,5.8,-,N/A,,Clear,100,2013-03-18 06:00:00
7:30 AM,28.4,23.0,80,29.53,-9999.0,East,6.9,-,N/A,,Clear,90,2013-03-18 06:30:00
8:00 AM,28.4,23.0,80,29.53,-9999.0,East,8.1,-,N/A,,Clear,90,2013-03-18 07:00:00
8:30 AM,30.2,23.0,75,29.53,-9999.0,East,6.9,-,N/A,,Clear,80,2013-03-18 07:30:00
9:00 AM,30.2,23.0,75,29.53,-9999.0,East,8.1,-,N/A,,Clear,80,2013-03-18 08:00:00
9:30 AM,32.0,23.0,69,29.50,-9999.0,East,8.1,-,N/A,,Clear,100,2013-03-18 08:30:00
10:00 AM,32.0,23.0,69,29.50,-9999.0,East,9.2,-,N/A,,Clear,90,2013-03-18 09:00:00
10:30 AM,32.0,23.0,69,29.47,-9999.0,ENE,8.1,-,N/A,,Clear,70,2013-03-18 09:30:00
11:00 AM,33.8,24.8,70,29.47,-9999.0,East,10.4,-,N/A,,Clear,90,2013-03-18 10:00:00
11:30 AM,35.6,24.8,65,29.47,-9999.0,East,9.2,-,N/A,,Clear,90,2013-03-18 10:30:00
12:00 PM,35.6,24.8,65,29.44,-9999.0,East,10.4,-,N/A,,Clear,90,2013-03-18 11:00:00
12:30 PM,37.4,26.6,65,29.42,6.2,East,11.5,-,N/A,,Partly Cloudy,100,2013-03-18 11:30:00
1:00 PM,39,26,48,29.46,8,ESE,11.2,,,,Mostly Cloudy,120,2013-03-18 12:00:00
1:00 PM,39.2,26.6,61,29.42,6.2,ESE,12.7,-,N/A,,Partly Cloudy,110,2013-03-18 12:00:00
1:30 PM,39.2,26.6,61,29.39,6.2,East,11.5,-,N/A,,Scattered Clouds,90,2013-03-18 12:30:00
2:00 PM,39.2,26.6,61,29.36,6.2,SE,11.5,-,N/A,,Mostly Cloudy,130,2013-03-18 13:00:00
2:30 PM,37.4,28.4,70,29.36,6.2,ESE,13.8,-,N/A,,Mostly Cloudy,110,2013-03-18 13:30:00
3:00 PM,37.4,30.2,75,29.36,6.2,ESE,13.8,-,N/A,,Overcast,120,2013-03-18 14:00:00
3:13 PM,35.6,30.2,81,29.36,6.2,ESE,15.0,-,N/A,Rain-Snow,Light Rain,110,2013-03-18 14:13:00
3:30 PM,35.6,30.2,81,29.33,6.2,ESE,15.0,-,N/A,Rain-Snow,Light Rain,110,2013-03-18 14:30:00
3:32 PM,35.6,30.2,81,29.33,6.2,ESE,13.8,-,N/A,Rain-Snow,Light Rain,110,2013-03-18 14:32:00
3:44 PM,35.6,32.0,87,29.33,5.0,ESE,12.7,-,N/A,Rain-Snow,Light Rain,110,2013-03-18 14:44:00
3:52 PM,33.8,32.0,93,29.33,3.7,East,11.5,-,N/A,Rain-Snow,Light Rain,100,2013-03-18 14:52:00
4:00 PM,33.8,32.0,93,29.33,1.9,East,11.5,-,N/A,Rain,Rain,90,2013-03-18 15:00:00
4:08 PM,33.8,32.0,93,29.30,1.6,East,11.5,-,N/A,Rain,Rain,100,2013-03-18 15:08:00
4:17 PM,32.0,32.0,100,29.30,1.6,East,15.0,-,N/A,Snow,Light Snow,80,2013-03-18 15:17:00
4:30 PM,32.0,32.0,100,29.30,1.6,East,15.0,-,N/A,Snow,Light Snow,80,2013-03-18 15:30:00
5:00 PM,32.0,32.0,100,29.30,1.7,East,11.5,-,N/A,Snow,Light Snow,90,2013-03-18 16:00:00
5:30 PM,32.0,30.2,93,29.30,1.2,East,13.8,-,N/A,Snow,Light Snow,90,2013-03-18 16:30:00
6:00 PM,32.0,30.2,93,29.27,1.6,East,12.7,-,N/A,Snow,Light Snow,90,2013-03-18 17:00:00
6:30 PM,32.0,30.2,93,29.27,1.9,East,11.5,-,N/A,Snow,Light Snow,80,2013-03-18 17:30:00
7:00 PM,31,31,97,29.34,2,East,11.2,,,Snow,Light Snow,90,2013-03-18 18:00:00
7:00 PM,32.0,30.2,93,29.27,1.7,East,10.4,-,N/A,Snow,Light Snow,90,2013-03-18 18:00:00
7:22 PM,32.0,30.2,93,29.27,1.7,East,10.4,-,N/A,Snow,Light Snow,90,2013-03-18 18:22:00
7:30 PM,32.0,30.2,93,29.27,1.7,East,10.4,-,N/A,Snow,Light Snow,90,2013-03-18 18:30:00
8:00 PM,30.2,30.2,100,29.27,1.7,East,10.4,-,N/A,Snow,Light Snow,90,2013-03-18 19:00:00
8:30 PM,30.2,30.2,100,29.24,1.6,East,10.4,-,N/A,Snow,Light Snow,90,2013-03-18 19:30:00
9:00 PM,30.2,30.2,100,29.24,1.6,East,10.4,-,N/A,Snow,Light Snow,80,2013-03-18 20:00:00
9:17 PM,30.2,30.2,100,29.24,2.2,East,11.5,-,N/A,Snow,Light Snow,90,2013-03-18 20:17:00
9:30 PM,30.2,30.2,100,29.24,2.2,East,10.4,-,N/A,Snow,Light Snow,90,2013-03-18 20:30:00
10:00 PM,30.2,30.2,100,29.24,1.8,East,9.2,-,N/A,Snow,Light Snow,100,2013-03-18 21:00:00
10:30 PM,30.2,30.2,100,29.21,1.8,East,8.1,-,N/A,Snow,Light Snow,90,2013-03-18 21:30:00
11:00 PM,30.2,30.2,100,29.21,-9999.0,East,8.1,-,N/A,Snow,Light Snow,100,2013-03-18 22:00:00
11:30 PM,30.2,30.2,100,29.21,1.7,East,6.9,-,N/A,Snow,Light Snow,90,2013-03-18 22:30:00